International Virtual Aviation Organisation

Eastern Europe and Northern Asia MCD

 

Карточка аэропорта UWWW

Внимание!
Информация на этой странице в стадии наполнения.
Если вы не увидели какой-то информации, или заметили неточность - пожалуйста сообщите нам!
Спасибо!
Команда RU-STAFF
Название аэропортаКурумоч
Название аэропорта (англ.)Kurumoch
Превышение476 ft. (145.1 m.)
Координаты53°30.102', 50°9.3000000000001'
Высота перехода900m
Эшелон переходаQFE>=749mm:FL050; QFE<749=>722:FL060; QFE<722:FL070
Коды ответчика4140-4177
Зона ОрВДСамара РПИ (UWWW)
Данные METARUWWW 121130Z 09002MPS 030V140 CAVOK 21/06 Q1033 R33/CLRD60 NOSIG RMK QFE764/1018
Проноз погоды (TAF)UWWW 121052Z 1212/1312 07003G08MPS 9999 SCT030 TX22/1311Z TN06/1302Z BECMG 1305/1307 13003G09MPS
NOTAMshow/hide NOTAM
AWOS   TABLE

Информация о ВПП

ВПП Длина ВПП (м.) Покрытие Курс ВПП Частота ILS
052553Асфальтобетон49110.5
232553Асфальтобетон229109.7
153003Железобетон148111.9
333003Железобетон328111.1

Диспетчерские позиции

Позывной Наименование органа УВД Частота
UWWWFM1Машина сопровождения119.000
UWWW_APPСамара-Подход124.600
UWWW_GNDСамара-Руление119.000
UWWW_R_APPСамара-Круг128.000
UWWW_TWRСамара-Старт118.200



Спутниковое изображение